Flag for U.S.A. Weather past 2 weeks in Sterling Heights, Michigan, U.S.A.

Now
33 °F

Fog.


Feels Like: 25 °F
Forecast: 22 / 37 °F
Wind: 9 mph from Southwest

Location: Selfridge Air National Guard Base

Current Time: Mar 3, 2015 at 6:22:36 PM

Latest Report: Mar 3, 2015 at 5:55 PM


Visibility: 1 mi

Pressure: 29.59 "Hg

Humidity: 96%

Dew point: 32 °F

Location of Sterling HeightsLocation

Historic Weather in Sterling Heights — Graph

°F

Sterling Heights temperature yesterday

Maximum temperature yesterday: 30 °F (at 3:55 PM)
Minimum temperature yesterday: 12 °F (at 10:58 PM)
Average temperature yesterday: 23 °F

Past Weeks' High & Low Weather Summary

 TemperatureHumidityPressure
High31 °F (Mar 3, 4:55 PM)95% (Mar 3, 4:55 PM)30.81 "Hg (Mar 3, 4:55 PM)
Low-9 °F (Feb 20, 5:58 AM)38% (Feb 19, 2:55 PM)29.60 "Hg (Mar 3, 4:55 PM)
Average11 °F69%30.21 "Hg
* Reported Feb 16 4:58 PM — Mar 3 4:55 PM, Sterling Heights, Weather by CustomWeather, © 2015

Note: Actual official high and low records may vary slightly from our data, if they occured in-between our weather recording intervals... More about our weather records

Advertising

Sterling Heights weather history for previous 24 hours

 ConditionsComfort  
Time TempWeatherWind HumidityBarometerVisibility
4:55 PM
Tue, Mar 3
31 °FLight freezing rain. Ice fog.7 mph95%29.60 "Hg1 mi
3:55 PM29 °FIce fog.9 mph94%29.63 "Hg2 mi
2:55 PM28 °FLight freezing rain. Ice fog.15 mph89%29.65 "Hg3 mi
1:55 PM28 °FLight freezing rain. Ice fog.16 mph88%29.73 "Hg4 mi
12:55 PM28 °FLight freezing rain. Ice fog.20 mph91%29.82 "Hg3 mi
11:55 AM23 °FSleet. Ice fog.15 mph91%29.94 "Hg2 mi
11:03 AM23 °FLight snow. Ice fog.14 mph86%29.93 "Hg1 mi
11:01 AM23 °FLight snow. Ice fog.14 mph86%29.93 "Hg1 mi
10:02 AM21 °FLight snow. Ice fog.13 mph93%30.03 "Hg1 mi
9:03 AM21 °FLight snow. Ice fog.10 mph93%30.10 "Hg1 mi
8:03 AM21 °FLight snow. Ice fog.9 mph86%30.15 "Hg1 mi
6:58 AM21 °FClear.12 mph82%30.19 "Hg10 mi
5:58 AM21 °FClear.7 mph82%30.22 "Hg10 mi
4:58 AM22 °FClear.7 mph86%30.25 "Hg10 mi
3:58 AM19 °FClear.3 mph86%30.29 "Hg10 mi
2:58 AM17 °FPassing clouds.No wind83%30.31 "Hg10 mi
1:58 AM16 °FMostly cloudy.1 mph83%30.34 "Hg10 mi
12:58 AM16 °FOvercast.2 mph84%30.35 "Hg10 mi
11:58 PM
Mon, Mar 2
13 °FPassing clouds.3 mph85%30.33 "Hg10 mi
10:58 PM12 °FOvercast.3 mph85%30.39 "Hg10 mi
9:58 PM12 °FClear.5 mph84%30.39 "Hg10 mi
8:58 PM17 °FClear.2 mph75%30.41 "Hg10 mi
7:55 PM19 °FPassing clouds.3 mph64%30.44 "Hg12 mi
6:55 PM25 °FPassing clouds.3 mph52%30.45 "Hg12 mi
Weather by CustomWeather, © 2015

See weather overviewHow to use our weather pages